Location: Rounton
(54.4000°N, 1.3500°W)
Time: 01:58:56
(UTC+00:00)

Envisat - Pass Details

Date: 23 October 2021
Orbit: 764 x 766 km, 98.2° (Epoch: 28 November)

Event Time Altitude Azimuth Distance (km) Brightness Sun altitude
Rises 05:52:20 0° 18° (NNE) 3,248 6.6 -17.7°
Reaches altitude 10° 05:54:45 10° 25° (NNE) 2,316 5.9 -17.3°
Maximum altitude 05:59:40 46° 98° (E) 1,023 4.1 -16.6°
Drops below altitude 10° 06:04:32 10° 172° (S) 2,298 5.5 -15.9°
Sets 06:06:55 0° 178° (S) 3,220 6.2 -15.5°
